Location: �clusier
(49.9361°N, 2.7869°E)
Time: 08:25:14
(UTC+00:00)

DNEPR-1 R/B - Pass Details

Date: 16 June 2021
Orbit: 588 x 1333 km, 64.6° (Epoch: 02 August)

Event Time Altitude Azimuth Distance (km) Brightness Sun altitude
Rises 22:42:37 0° 313° (NW) 2,836 8.0 -15.2°
Reaches altitude 10° 22:44:59 10° 304° (NW) 1,922 6.8 -15.3°
Maximum altitude 22:48:47 33° 240° (WSW) 1,018 4.5 -15.4°
Enters shadow 22:50:36 23° 196° (SSW) 1,300 4.7 -15.5°
